This is the latest recevied weather packets stored in our database for station/object N1ICS-1. If no packets are shown the sender has not sent any weather packets the latest 10 day(s).
| Time | Temp. | Humidity | Pressure | Rain* | Wind** | Luminosity | Snow |
|---|---|---|---|---|---|---|---|
| 1777220102 | 10° C | 88% | 1021.4 hPa | 0 mm | - | 341 W/m² | - |
| 1777219802 | 10° C | 88% | 1021.5 hPa | 0 mm | - | 337 W/m² | - |
| 1777219502 | 10° C | 89% | 1021.5 hPa | 0 mm | - | 323 W/m² | - |
| 1777219203 | 10° C | 89% | 1021.7 hPa | 0 mm | - | 317 W/m² | - |
| 1777218902 | 10° C | 89% | 1021.7 hPa | 0 mm | - | 302 W/m² | - |
| 1777218601 | 10° C | 89% | 1021.7 hPa | 0 mm | - | 312 W/m² | - |
| 1777218302 | 10° C | 91% | 1021.6 hPa | 0 mm | - | 235 W/m² | - |
| 1777218002 | 10° C | 91% | 1021.6 hPa | 0 mm | - | 226 W/m² | - |
| 1777217702 | 10° C | 91% | 1021.5 hPa | 0 mm | - | 267 W/m² | - |
| 1777217402 | 9.44° C | 90% | 1021.7 hPa | 0 mm | - | 278 W/m² | - |
| 1777217102 | 9.44° C | 91% | 1021.5 hPa | 0 mm | - | 258 W/m² | - |
| 1777216802 | 9.44° C | 91% | 1021.6 hPa | 0 mm | - | 249 W/m² | - |
| 1777216502 | 9.44° C | 92% | 1021.5 hPa | 0 mm | - | 219 W/m² | - |
| 1777216202 | 9.44° C | 92% | 1021.3 hPa | 0 mm | - | 183 W/m² | - |
| 1777215902 | 9.44° C | 91% | 1021.5 hPa | 0 mm | - | 191 W/m² | - |
| 1777215602 | 9.44° C | 91% | 1021.3 hPa | 0 mm | - | 191 W/m² | - |
| 1777215301 | 9.44° C | 91% | 1021.2 hPa | 0 mm | - | 176 W/m² | - |
| 1777215002 | 9.44° C | 91% | 1021.2 hPa | 0 mm | - | 182 W/m² | - |
| 1777214702 | 9.44° C | 91% | 1021.4 hPa | 0 mm | - | 181 W/m² | - |
| 1777214402 | 9.44° C | 91% | 1021.1 hPa | 0 mm | - | 182 W/m² | - |
| 1777214102 | 9.44° C | 91% | 1021.1 hPa | 0 mm | - | 200 W/m² | - |
| 1777213802 | 9.44° C | 91% | 1021.2 hPa | 0 mm | - | 170 W/m² | - |
| 1777213501 | 9.44° C | 91% | 1021 hPa | 0 mm | - | 193 W/m² | - |
| 1777213202 | 9.44° C | 91% | 1020.9 hPa | 0 mm | - | 195 W/m² | - |
| 1777212902 | 9.44° C | 91% | 1021.1 hPa | 0 mm | - | 155 W/m² | - |
* Rain latest hour (hover to see other rain measurements)
** Current wind speed in m/s (hover to see current wind gust speed)